Home > Time Zones > World Clock > Weather > China > Wuhan > Past weeks

Flag for China Weather past 2 weeks in Wuhan, Hubei, China

Now
81 °F

Passing clouds.


Feels Like: 85 °F
Forecast: 74 / 88 °F
Wind: 3 mph from Northeast

Location: Wuhan Airport

Current Time: Aug 29, 2014 at 6:09:50 PM

Latest Report: Aug 29, 2014 at 5:00 PM


Visibility: N/A

Pressure: 29.92 "Hg

Humidity: 79%

Dew point: 73 °F

Location of WuhanLocation

Historic Weather in Wuhan — Graph

°F

Wuhan temperature yesterday

Maximum temperature yesterday: 82 °F (at 2:00 PM)
Minimum temperature yesterday: 73 °F (at 1:00 AM)
Average temperature yesterday: 76 °F

Past Weeks' High & Low Weather Summary

 TemperatureHumidityPressure
High91 °F (Aug 22, 2:00 PM)100% (Aug 15, 1:00 AM)29.98 "Hg (Aug 15, 1:00 AM)
Low70 °F (Aug 17, 6:00 AM)55% (Aug 22, 5:00 PM)29.65 "Hg (Aug 23, 4:00 PM)
Average79 °F84%29.82 "Hg
* Reported Aug 14 5:00 PM — Aug 29 5:00 PM, Wuhan, Weather by CustomWeather, © 2014

Note: Actual official high and low records may vary slightly from our data, if they occured in-between our weather recording intervals... More about our weather records

Advertising

Wuhan weather history for previous 24 hours

 ConditionsComfort  
Time TempWeatherWind HumidityBarometerVisibility
5:00 PM
Aug 29
81 °FPassing clouds.3 mph79%29.92 "HgN/A
4:00 PM81 °FPartly sunny.3 mph84%29.92 "HgN/A
3:00 PM81 °FLight rain. Partly sunny.1 mph79%29.92 "HgN/A
2:00 PM82 °FPartly sunny.3 mph74%29.92 "HgN/A
1:00 PM81 °FPartly sunny.3 mph84%29.95 "HgN/A
12:00 PM79 °FLight rain. Scattered clouds.3 mph89%29.95 "HgN/A
11:00 AM77 °FLight rain. Scattered clouds.1 mph94%29.98 "Hg5 mi
10:00 AM77 °FLight rain. Scattered clouds.1 mph94%29.98 "Hg4 mi
9:00 AM75 °FScattered clouds.1 mph94%29.98 "Hg4 mi
8:00 AM73 °FLight rain. Fog.No wind100%29.98 "Hg3 mi
7:00 AM73 °FLight rain. Fog.1 mph100%29.95 "Hg3 mi
6:00 AM73 °FFog.1 mph100%29.95 "Hg3 mi
5:00 AM73 °FPassing clouds.No wind100%29.95 "Hg4 mi
4:00 AM73 °FClear.1 mph100%29.95 "Hg4 mi
3:00 AM73 °FFog.No wind100%29.95 "Hg3 mi
2:00 AM73 °FClear.3 mph100%29.95 "Hg4 mi
1:00 AM73 °FFog.No wind100%29.95 "Hg3 mi
12:00 AM73 °FClear.No wind100%29.95 "Hg10 mi
11:00 PM
Aug 28
73 °FPassing clouds.3 mph100%29.95 "HgN/A
10:00 PM73 °FClear.1 mph100%29.95 "Hg10 mi
9:00 PM73 °FClear.1 mph100%29.95 "Hg10 mi
8:00 PM75 °FPassing clouds.3 mph94%29.92 "HgN/A
7:00 PM75 °FClear.6 mph94%29.92 "Hg10 mi
6:00 PM77 °FScattered clouds.3 mph94%29.92 "HgN/A
Weather by CustomWeather, © 2014

See weather overviewHow to use our weather pages